Aiken, SC

11:00 AM EST on January 21, 2017 (GMT -0500)
Aiken

Weather History for KAIK - May, 2013

Change the Weather History Date:

Friday, May 17, 2013

  Actual Average Record
Temperature  
Mean Temperature 74 °F -  
Max Temperature 87 °F 84 °F 87 °F (2013)
Min Temperature 60 °F 57 °F 42 °F (2014)
Cooling Degree Days 8    
Growing Degree Days 24 (Base 50)    
Moisture  
Dew Point 56 °F    
Average Humidity 59    
Maximum Humidity 100    
Minimum Humidity 27    
Precipitation  
Precipitation 0.00 in - - ()
Sea Level Pressure  
Sea Level Pressure 30.11 in    
Wind  
Wind Speed 3 mph (SW)    
Max Wind Speed 13 mph    
Max Gust Speed 20 mph    
Visibility 10 miles    
Events      
Averages and records for this station are not official NWS values.
T = Trace of Precipitation, MM = Missing Value Source: NWS Daily Summary

Daily Weather History Graph

Daily Weather History Graph

Search for Another Location

Airport or City:

Trip Planner

Search our weather history database for the weather conditions in past years. The results will help you decide how hot, cold, wet, or windy it might be!

Date:

Astronomy

May. 17, 2013 Rise Set
Actual Time 6:24 AM EDT 8:22 PM EDT
Civil Twilight 5:56 AM EDT 8:49 PM EDT
Nautical Twilight 5:23 AM EDT 9:23 PM EDT
Astronomical Twilight 4:47 AM EDT 9:59 PM EDT
Moon 12:47 PM EDT (5/17) 1:21 AM EDT (5/17)
Length of Visible Light 14h 53m
Length of Day
13h 57m
Waxing Crescent, 45% of the Moon is Illuminated
May 17
Waxing Crescent
May 18
First Quarter
May 25
Full
May 31
Last Quarter
Jun 8
New

Hourly Weather History & Observations

Time (EDT) Temp. Heat Index Dew Point Humidity Pressure Visibility Wind Dir Wind Speed Gust Speed Precip Events Conditions
12:15 AM 68.0 °F - 57.2 °F 68% 30.08 in 10.0 mi SSW 3.5 mph - N/A   Clear
12:35 AM 64.4 °F - 57.2 °F 77% 30.09 in 10.0 mi South 4.6 mph - N/A   Clear
12:55 AM 64.4 °F - 59.0 °F 83% 30.09 in 10.0 mi South 3.5 mph - N/A   Clear
1:15 AM 66.2 °F - 57.2 °F 73% 30.08 in 10.0 mi Calm Calm - N/A   Clear
1:35 AM 64.4 °F - 55.4 °F 73% 30.08 in 10.0 mi Calm Calm - N/A   Clear
1:55 AM 62.6 °F - 55.4 °F 77% 30.08 in 10.0 mi Calm Calm - N/A   Clear
2:15 AM 62.6 °F - 57.2 °F 82% 30.07 in 10.0 mi Calm Calm - N/A   Clear
2:35 AM 60.8 °F - 59.0 °F 94% 30.07 in 10.0 mi Calm Calm - N/A   Clear
2:55 AM 60.8 °F - 59.0 °F 94% 30.07 in 10.0 mi South 4.6 mph - N/A   Clear
3:15 AM 62.6 °F - 59.0 °F 88% 30.07 in 10.0 mi South 3.5 mph - N/A   Clear
3:35 AM 62.6 °F - 55.4 °F 77% 30.07 in 10.0 mi Calm Calm - N/A   Clear
3:55 AM 60.8 °F - 55.4 °F 82% 30.07 in 10.0 mi Calm Calm - N/A   Clear
4:15 AM 60.8 °F - 60.8 °F 100% 30.07 in 10.0 mi Calm Calm - N/A   Clear
4:35 AM 64.4 °F - 59.0 °F 83% 30.07 in 10.0 mi Calm Calm - N/A   Clear
4:55 AM 62.6 °F - 57.2 °F 82% 30.08 in 10.0 mi SW 4.6 mph - N/A   Clear
5:15 AM 64.4 °F - 57.2 °F 77% 30.09 in 10.0 mi SSW 4.6 mph - N/A   Clear
5:35 AM 64.4 °F - 55.4 °F 73% 30.09 in 10.0 mi SSW 3.5 mph - N/A   Clear
5:55 AM 62.6 °F - 55.4 °F 77% 30.10 in 10.0 mi Calm Calm - N/A   Clear
6:15 AM 60.8 °F - 55.4 °F 82% 30.10 in 10.0 mi Calm Calm - N/A   Clear
6:35 AM 60.8 °F - 59.0 °F 94% 30.11 in 10.0 mi Calm Calm - N/A   Clear
6:55 AM 60.8 °F - 59.0 °F 94% 30.12 in 10.0 mi Calm Calm - N/A   Clear
7:15 AM 62.6 °F - 60.8 °F 94% 30.13 in 10.0 mi Calm Calm - N/A   Clear
7:35 AM 64.4 °F - 60.8 °F 88% 30.13 in 10.0 mi Calm Calm - N/A   Clear
8:15 AM 68.0 °F - 60.8 °F 78% 30.14 in 10.0 mi West 3.5 mph - N/A   Clear
8:35 AM 69.8 °F - 60.8 °F 73% 30.14 in 10.0 mi WSW 4.6 mph - N/A   Clear
8:55 AM 69.8 °F - 59.0 °F 68% 30.15 in 10.0 mi WSW 3.5 mph - N/A   Clear
9:15 AM 71.6 °F - 59.0 °F 64% 30.15 in 10.0 mi Calm Calm - N/A   Clear
9:35 AM 75.2 °F - 55.4 °F 50% 30.15 in 10.0 mi NW 3.5 mph - N/A   Scattered Clouds
9:55 AM 77.0 °F - 53.6 °F 44% 30.15 in 10.0 mi Calm Calm - N/A   Scattered Clouds
10:15 AM 78.8 °F - 51.8 °F 39% 30.15 in 10.0 mi WNW 3.5 mph - N/A   Mostly Cloudy
10:35 AM 78.8 °F - 51.8 °F 39% 30.16 in 10.0 mi Calm Calm - N/A   Mostly Cloudy
10:55 AM 78.8 °F - 51.8 °F 39% 30.16 in 10.0 mi West 3.5 mph - N/A   Scattered Clouds
11:15 AM 78.8 °F - 51.8 °F 39% 30.16 in 10.0 mi WSW 3.5 mph - N/A   Clear
11:35 AM 78.8 °F - 51.8 °F 39% 30.16 in 10.0 mi SW 3.5 mph - N/A   Clear
11:55 AM 78.8 °F - 51.8 °F 39% 30.16 in 10.0 mi SW 4.6 mph - N/A   Clear
12:15 PM 78.8 °F - 51.8 °F 39% 30.16 in 10.0 mi SSW 3.5 mph - N/A   Clear
12:35 PM 80.6 °F - 51.8 °F 37% 30.16 in 10.0 mi WSW 4.6 mph - N/A   Clear
12:55 PM 82.4 °F 81.4 °F 53.6 °F 37% 30.15 in 10.0 mi West 4.6 mph - N/A   Clear
1:15 PM 84.2 °F 82.8 °F 53.6 °F 35% 30.14 in 10.0 mi SW 5.8 mph - N/A   Clear
1:35 PM 82.4 °F 81.7 °F 55.4 °F 39% 30.14 in 10.0 mi SW 6.9 mph - N/A   Scattered Clouds
1:55 PM 84.2 °F 82.8 °F 53.6 °F 35% 30.13 in 10.0 mi West 6.9 mph - N/A   Scattered Clouds
2:15 PM 86.0 °F - 51.8 °F 31% 30.13 in 10.0 mi West 8.1 mph - N/A   Scattered Clouds
2:35 PM 86.0 °F - 48.2 °F 27% 30.12 in 10.0 mi WSW 4.6 mph - N/A   Clear
2:55 PM 86.0 °F - 50.0 °F 29% 30.12 in 10.0 mi West 4.6 mph - N/A   Scattered Clouds
3:15 PM 87.8 °F - 50.0 °F 27% 30.11 in 10.0 mi SW 8.1 mph - N/A   Scattered Clouds
3:35 PM 86.0 °F - 51.8 °F 31% 30.10 in 10.0 mi SW 3.5 mph - N/A   Clear
3:55 PM 86.0 °F 84.2 °F 53.6 °F 33% 30.10 in 10.0 mi SSW 8.1 mph - N/A   Scattered Clouds
4:15 PM 86.0 °F - 51.8 °F 31% 30.09 in 10.0 mi South 5.8 mph - N/A   Scattered Clouds
4:35 PM 86.0 °F - 51.8 °F 31% 30.09 in 10.0 mi SSW 8.1 mph - N/A   Mostly Cloudy
4:55 PM 84.2 °F - 51.8 °F 33% 30.09 in 10.0 mi WSW 9.2 mph - N/A   Scattered Clouds
5:15 PM 82.4 °F 82.0 °F 57.2 °F 42% 30.10 in 10.0 mi WSW 12.7 mph 19.6 mph N/A   Scattered Clouds
5:35 PM 82.4 °F 82.0 °F 57.2 °F 42% 30.10 in 10.0 mi WSW 8.1 mph 16.1 mph N/A   Scattered Clouds
5:55 PM 80.6 °F 81.1 °F 59.0 °F 48% 30.10 in 10.0 mi SW 5.8 mph - N/A   Clear
6:15 PM 80.6 °F 80.8 °F 57.2 °F 45% 30.10 in 10.0 mi SW 5.8 mph - N/A   Clear
6:35 PM 80.6 °F 80.8 °F 57.2 °F 45% 30.10 in 10.0 mi SW 4.6 mph - N/A   Clear
6:55 PM 80.6 °F 80.5 °F 55.4 °F 42% 30.09 in 10.0 mi Calm Calm - N/A   Scattered Clouds
7:15 PM 80.6 °F 80.5 °F 55.4 °F 42% 30.09 in 10.0 mi South 5.8 mph - N/A   Scattered Clouds
7:35 PM 78.8 °F - 55.4 °F 44% 30.09 in 10.0 mi SSW 4.6 mph - N/A   Clear
7:55 PM 77.0 °F - 55.4 °F 47% 30.09 in 10.0 mi SSW 4.6 mph - N/A   Clear
8:15 PM 75.2 °F - 55.4 °F 50% 30.10 in 10.0 mi SSW 5.8 mph - N/A   Clear
8:35 PM 73.4 °F - 55.4 °F 53% 30.10 in 10.0 mi South 3.5 mph - N/A   Clear
8:55 PM 71.6 °F - 57.2 °F 60% 30.10 in 10.0 mi South 4.6 mph - N/A   Clear
9:15 PM 71.6 °F - 59.0 °F 64% 30.11 in 10.0 mi South 4.6 mph - N/A   Clear
9:35 PM 71.6 °F - 59.0 °F 64% 30.11 in 10.0 mi South 4.6 mph - N/A   Clear
9:55 PM 71.6 °F - 59.0 °F 64% 30.11 in 10.0 mi SSE 4.6 mph - N/A   Clear
10:15 PM 71.6 °F - 59.0 °F 64% 30.12 in 10.0 mi SSE 4.6 mph - N/A   Clear
10:35 PM 69.8 °F - 59.0 °F 68% 30.12 in 10.0 mi SSE 3.5 mph - N/A   Clear
10:55 PM 69.8 °F - 59.0 °F 68% 30.13 in 10.0 mi SSE 5.8 mph - N/A   Clear
11:15 PM 71.6 °F - 59.0 °F 64% 30.13 in 10.0 mi SSE 8.1 mph - N/A   Clear
11:35 PM 69.8 °F - 60.8 °F 73% 30.13 in 10.0 mi SSE 6.9 mph - N/A   Scattered Clouds
11:55 PM 69.8 °F - 60.8 °F 73% 30.13 in 10.0 mi SSE 5.8 mph - N/A   Scattered Clouds